SL-16 DEB, 22602

Orbit data source: Space-Track

SL-16 DEB, 22602 is space debris in LEO originally from a launch on Fri, 26 Mar 1993 UTC launched from the Tyuratam Missile And Space Complex (TTMTR). Debris objects in space refer to the collection of defunct objects orbiting the Earth. Examples of debris include non-operational satellites, rocket bodies, and fragments generated from explosions, collisions, or faulty payload assembly.

Loading next visibility...
Identifier
22602, 1993-016L
Orbit
LEO
Country
Flag of CISCIS
Related business
Manufacturer
Unknown
Mission
Spacecraft
Bus & Motor
Unknown
Mass
Unknown
Launch date (UTC)
1993-03-26 (33 years ago)
Launch vehicle
Unknown
Launch site
Tyuratam Missile And Space Complex (TTMTR)
Object type
Payload
Rocket body
Debris
Shape & HBR
Unknown shape, 0.1 m
Radar Cross Section
Small (<0.1 m²)

Expand to show TLE details & history
Last TLE update: 15 hours ago

TLE from 15 hours ago
0 SL-16 DEB
1 22602U 93016L   25353.24843833  .00000073  00000-0  10683-3 0  9995
2 22602  71.0457 305.0795 0199900 349.4913  75.3284 13.74116374640420
Epoch: 2025-12-19T05:57Z
TLE epoch observation values (Epoch: 2025-12-19T05:57:45.071Z)
Latitude
60.67176°
Longitude
165.00176°
Altitude
960.126 km
Speed
7.395 km/s
True Right ascension
22h 50m 07s
True Declination
60° 31' 43"
Sunlit
Object was in daylight at epoch
Visualization orbit readout
Latitude
Unknown
Longitude
Unknown
Altitude
Unknown
Speed
Unknown
Apparent Right ascension
Unknown
Apparent Declination
Unknown
Sunlit
N/A
Visualization observer readout
Local Sidereal Time
20:02:02
Azimuth
Unknown
Elevation
Unknown
Doppler factor
Unknown
Orbital elements
Apogee altitude
1,129.934 km
Perigee altitude
835.644 km
Semi-major axis
7,360.926 km
Eccentricity
0.01999
Inclination
71.0457°
RAAN
305.0795°
Arg. of periapsis
349.4913°
True anomaly
77.55794°
Mean anomaly
75.3284°
Eccentric anomaly
76.44182°
Mean motion
3.43672 °/min
Orbital period
104.75 mins
BSTAR
0.00010683
Loading maneuver chart data...
Computing Atmospheric mass density...
Loading historical data...
Loading historical data...
Loading historical data...
Loading historical data...
Loading historical data...
Loading historical data...
Loading historical data...

Documentation

Showing up to 5 results
|